YO7MGN Weather Reports


time (UTC)temp
C
wind
direction
speed
KPH
gust
KPH
rain 1hr
cm
rain 24hr
cm
rain mn
cm
humidity
%
barometer
mb
20260508023016 14 173 0.0 0.0 0.00 0.00 0.00 83 1014.9
20260508021519 14 173 0.0 0.0 0.00 0.00 0.00 83 1014.8
20260508020012 15 173 0.0 0.0 0.00 0.00 0.00 82 1014.8
20260508014511 15 173 0.0 0.0 0.00 0.00 0.00 82 1014.8
20260508013013 15 173 0.0 0.0 0.00 0.00 0.00 81 1014.9
20260508011507 15 173 0.0 0.0 0.00 0.00 0.00 81 1014.9
20260508010008 15 173 0.0 0.0 0.00 0.00 0.00 80 1014.9
20260508004503 15 173 0.0 0.0 0.00 0.00 0.00 80 1015.0
20260508003003 16 173 0.0 0.0 0.00 0.00 0.00 80 1015.0
20260508001600 16 173 0.0 0.0 0.00 0.00 0.00 78 1015.1
20260508000058 16 173 0.0 0.0 0.00 0.00 0.00 78 1015.2
20260507234558 16 173 0.0 0.0 0.00 0.00 0.00 77 1015.3
20260507233059 17 173 0.0 0.0 0.00 0.00 0.00 76 1015.4
20260507231556 17 173 0.0 0.0 0.00 0.00 0.00 76 1015.5
20260507230107 17 173 0.0 0.0 0.00 0.00 0.00 76 1015.7
20260507224554 17 173 0.0 0.0 0.00 0.00 0.00 76 1015.7
20260507223050 17 173 0.0 0.0 0.00 0.00 0.00 77 1015.8
20260507221549 17 173 0.0 0.0 0.00 0.00 0.00 77 1015.7
20260507220053 17 173 0.0 0.0 0.00 0.00 0.00 76 1015.4
20260507214545 17 173 0.0 0.0 0.00 0.00 0.00 74 1015.4
20260507213044 17 173 0.0 0.0 0.00 0.00 0.00 73 1015.4
20260507211543 18 173 0.0 0.0 0.00 0.00 0.00 72 1015.3
20260507210040 18 173 0.0 0.0 0.00 0.00 0.00 72 1015.2
20260507204536 18 173 0.0 0.0 0.00 0.00 0.00 71 1015.2
20260507203105 19 173 0.0 0.0 0.00 0.00 0.00 71 1015.3
20260507201535 19 173 0.0 0.0 0.00 0.00 0.00 71 1015.2
20260507200035 19 173 0.0 0.0 0.00 0.00 0.00 69 1015.1
20260507194535 20 173 0.0 0.0 0.00 0.00 0.00 66 1015.1
20260507193038 20 173 0.0 0.0 0.00 0.00 0.00 65 1015.4
20260507191634 20 173 0.0 0.0 0.00 0.00 0.00 66 1015.3
20260507190032 20 173 0.0 0.0 0.00 0.00 0.00 63 1015.1
20260507184532 20 173 0.0 0.0 0.00 0.00 0.00 62 1014.9
20260507183033 20 173 0.0 0.0 0.00 0.00 0.00 61 1014.8
20260507181531 20 173 0.0 0.0 0.00 0.00 0.00 60 1014.6
20260507180034 21 173 0.0 0.0 0.00 0.00 0.00 60 1014.7
20260507174539 21 173 0.0 0.0 0.00 0.00 0.00 59 1014.6
20260507173051 21 173 0.0 0.0 0.00 0.00 0.00 60 1014.6
20260507171530 21 173 0.0 0.0 0.00 0.00 0.00 58 1014.5
20260507170035 21 173 0.0 0.0 0.00 0.00 0.00 57 1014.6
20260507164532 21 173 0.0 0.0 0.00 0.00 0.00 56 1014.5
20260507163028 22 11 0.0 0.0 0.00 0.00 0.00 56 1014.5
20260507161534 22 32 0.0 0.0 0.00 0.00 0.00 55 1014.5
20260507160026 22 32 0.0 0.0 0.00 0.00 0.00 57 1014.5
20260507154527 22 32 0.0 0.0 0.00 0.00 0.00 56 1014.5
20260507153025 22 32 0.0 0.0 0.00 0.00 0.00 56 1014.4
20260507151526 22 32 0.0 0.0 0.00 0.00 0.00 56 1014.5
20260507150036 22 32 0.0 0.0 0.00 0.00 0.00 56 1014.6
20260507144525 22 32 0.0 0.0 0.00 0.00 0.00 55 1014.6
20260507143025 22 32 0.0 0.0 0.00 0.00 0.00 55 1014.6
20260507141528 22 32 0.0 0.0 0.00 0.00 0.00 54 1014.6
20260507140023 22 32 0.0 0.0 0.00 0.00 0.00 55 1014.6
20260507134523 22 32 0.0 0.0 0.00 0.00 0.00 54 1014.7
20260507133025 22 32 0.0 0.0 0.00 0.00 0.00 55 1014.7
20260507131521 22 32 0.0 0.0 0.00 0.00 0.00 56 1014.8
20260507130020 23 174 0.0 0.0 0.00 0.00 0.00 53 1015.0
20260507124619 23 179 0.0 0.0 0.00 0.00 0.00 51 1015.1
20260507123026 23 175 0.0 0.0 0.00 0.00 0.00 51 1015.2
20260507121519 23 110 0.0 0.0 0.00 0.00 0.00 51 1015.2
20260507120018 23 172 0.0 0.0 0.00 0.00 0.00 51 1015.3
20260507114517 23 175 0.0 0.0 0.00 0.00 0.00 50 1015.3
20260507113016 23 172 0.0 0.0 0.00 0.00 0.00 49 1015.3
20260507111515 23 171 0.0 0.0 0.00 0.00 0.00 49 1015.4
20260507110013 23 207 0.0 0.0 0.00 0.00 0.00 48 1015.4
20260507104512 23 116 0.0 0.0 0.00 0.00 0.00 50 1015.5
20260507103012 23 148 0.0 0.0 0.00 0.00 0.00 47 1015.6
20260507101511 23 28 0.0 0.0 0.00 0.00 0.00 47 1015.7
20260507100009 22 167 0.0 0.0 0.00 0.00 0.00 47 1015.7
20260507094506 22 155 0.0 0.0 0.00 0.00 0.00 50 1015.7
20260507093005 22 146 0.0 0.0 0.00 0.00 0.00 50 1015.6
20260507091505 22 145 0.0 0.0 0.00 0.00 0.00 50 1015.7
20260507090006 22 177 0.0 0.0 0.00 0.00 0.00 50 1015.6
20260507084502 22 126 0.0 0.0 0.00 0.00 0.00 50 1015.6
20260507083002 22 134 0.0 0.0 0.00 0.00 0.00 50 1015.5
20260507081558 21 5 0.0 0.0 0.00 0.00 0.00 52 1015.5
20260507080056 21 5 0.0 0.0 0.00 0.00 0.00 53 1015.5
20260507074554 21 5 0.0 0.0 0.00 0.00 0.00 54 1015.4
20260507073103 21 360 0.0 0.0 0.00 0.00 0.00 52 1015.5
20260507071550 20 11 0.0 0.0 0.00 0.00 0.00 54 1015.5
20260507070055 19 5 0.0 0.0 0.00 0.00 0.00 55 1015.5
20260507064550 18 360 0.0 0.0 0.00 0.00 0.00 56 1015.5
20260507063039 17 40 0.0 1.6 0.00 0.00 0.00 59 1015.5
20260507061538 17 342 0.0 0.0 0.00 0.00 0.00 58 1015.6
20260507060034 16 17 0.0 4.8 0.00 0.00 0.00 59 1015.5
20260507054533 16 360 0.0 4.8 0.00 0.00 0.00 63 1015.4
20260507053031 15 355 0.0 8.0 0.00 0.00 0.00 64 1015.2
20260507051530 15 342 0.0 1.6 0.00 0.00 0.00 65 1015.1
20260507050031 15 342 0.0 1.6 0.00 0.00 0.00 65 1015.1
20260507044529 15 158 0.0 0.0 0.00 0.00 0.00 67 1015.1
20260507043026 14 159 0.0 0.0 0.00 0.00 0.00 68 1014.7
20260507041523 13 159 0.0 0.0 0.00 0.00 0.00 69 1014.5
20260507040020 13 159 0.0 1.6 0.00 0.00 0.00 69 1014.4
20260507034520 13 33 0.0 0.0 0.00 0.00 0.00 69 1014.1
20260507033019 13 25 0.0 0.0 0.00 0.00 0.00 69 1013.9
20260507031515 13 19 0.0 1.6 0.00 0.00 0.00 70 1013.8
20260507030014 13 12 0.0 3.2 0.00 0.00 0.00 70 1013.7
20260507024513 14 5 0.0 1.6 0.00 0.00 0.00 71 1014.0